Williams, AZ

2:54 AM MST on August 22, 2017 (GMT -0700)
Williams

Weather History for KCMR - November, 2012

Change the Weather History Date:

Monday, November 5, 2012

  Actual Average (K40G) Record (K40G)
Temperature  
Mean Temperature 50 °F -  
Max Temperature 71 °F 52 °F 59 °F (1996)
Min Temperature 28 °F 43 °F 42 °F (2001)
Degree Days  
Heating Degree Days 16    
Moisture  
Dew Point 19 °F    
Average Humidity 36    
Maximum Humidity 60    
Minimum Humidity 14    
Precipitation  
Precipitation 0.00 in - - ()
Sea Level Pressure  
Sea Level Pressure 30.45 in    
Wind  
Wind Speed 6 mph (SE)    
Max Wind Speed 16 mph    
Max Gust Speed 20 mph    
Visibility 10 miles    
Events      
Averages and records for this station are not official NWS values.
T = Trace of Precipitation, MM = Missing Value Source: NWS Daily Summary

Daily Weather History Graph

Daily Weather History Graph

Search for Another Location

Airport or City:

Trip Planner

Search our weather history database for the weather conditions in past years. The results will help you decide how hot, cold, wet, or windy it might be!

Date:

Astronomy

Nov. 05, 2012 Rise Set
Actual Time 6:54 AM MST 5:29 PM MST
Civil Twilight 6:28 AM MST 5:56 PM MST
Nautical Twilight 5:57 AM MST 6:26 PM MST
Astronomical Twilight 5:28 AM MST 6:56 PM MST
Moon 11:10 PM MST (11/5) 12:15 PM MST (11/5)
Length of Visible Light 11h 28m
Length of Day
10h 35m
Waning Gibbous, 62% of the Moon is Illuminated
Nov 5
Waning Gibbous
Nov 6
Last Quarter
Nov 13
New
Nov 20
First Quarter
Nov 28
Full

Hourly Weather History & Observations

Time (MST) Temp. Windchill Dew Point Humidity Pressure Visibility Wind Dir Wind Speed Gust Speed Precip Events Conditions
12:15 AM 33.8 °F 27.7 °F 14.0 °F 44% 30.47 in 10.0 mi SSE 6.9 mph - N/A   Clear
12:35 AM 35.6 °F 32.8 °F 14.0 °F 41% 30.47 in 10.0 mi SE 3.5 mph - N/A   Clear
12:55 AM 35.6 °F 32.8 °F 14.0 °F 41% 30.47 in 10.0 mi SE 3.5 mph - N/A   Clear
1:15 AM 37.4 °F 34.9 °F 14.0 °F 38% 30.47 in 10.0 mi ENE 3.5 mph - N/A   Clear
1:35 AM 32.0 °F 28.7 °F 14.0 °F 48% 30.46 in 10.0 mi SSE 3.5 mph - N/A   Clear
1:55 AM 35.6 °F 30.7 °F 14.0 °F 41% 30.47 in 10.0 mi SE 5.8 mph - N/A   Clear
2:15 AM 32.0 °F 24.8 °F 15.8 °F 51% 30.46 in 10.0 mi SSE 8.1 mph - N/A   Clear
2:35 AM 32.0 °F 25.6 °F 15.8 °F 51% 30.46 in 10.0 mi South 6.9 mph - N/A   Clear
2:55 AM 32.0 °F 26.4 °F 15.8 °F 51% 30.46 in 10.0 mi SSE 5.8 mph - N/A   Clear
3:15 AM 32.0 °F 26.4 °F 15.8 °F 51% 30.45 in 10.0 mi SSE 5.8 mph - N/A   Clear
3:35 AM 32.0 °F 24.8 °F 15.8 °F 51% 30.45 in 10.0 mi SSE 8.1 mph - N/A   Clear
3:55 AM 32.0 °F 24.8 °F 15.8 °F 51% 30.45 in 10.0 mi SSE 8.1 mph - N/A   Clear
4:15 AM 32.0 °F 27.5 °F 15.8 °F 51% 30.45 in 10.0 mi SSE 4.6 mph - N/A   Clear
4:35 AM 32.0 °F 26.4 °F 15.8 °F 51% 30.45 in 10.0 mi SSE 5.8 mph - N/A   Clear
4:55 AM 32.0 °F 26.4 °F 15.8 °F 51% 30.45 in 10.0 mi SSE 5.8 mph - N/A   Clear
5:15 AM 30.2 °F 23.4 °F 15.8 °F 55% 30.46 in 10.0 mi SSE 6.9 mph - N/A   Clear
5:35 AM 30.2 °F 23.4 °F 15.8 °F 55% 30.46 in 10.0 mi SSE 6.9 mph - N/A   Clear
5:55 AM 30.2 °F 23.4 °F 15.8 °F 55% 30.46 in 10.0 mi SSE 6.9 mph - N/A   Clear
6:15 AM 28.4 °F 20.4 °F 15.8 °F 59% 30.46 in 10.0 mi SSE 8.1 mph - N/A   Clear
6:35 AM 30.2 °F 23.4 °F 17.6 °F 60% 30.46 in 10.0 mi SSE 6.9 mph - N/A   Clear
6:55 AM 30.2 °F 23.4 °F 17.6 °F 60% 30.47 in 10.0 mi SSE 6.9 mph - N/A   Clear
7:15 AM 30.2 °F 21.9 °F 17.6 °F 60% 30.47 in 10.0 mi SSE 9.2 mph - N/A   Clear
7:35 AM 35.6 °F 29.2 °F 17.6 °F 48% 30.47 in 10.0 mi SSE 8.1 mph - N/A   Clear
7:55 AM 39.2 °F 35.0 °F 19.4 °F 45% 30.47 in 10.0 mi South 5.8 mph - N/A   Clear
8:15 AM 46.4 °F 43.5 °F 19.4 °F 34% 30.48 in 10.0 mi SSE 5.8 mph - N/A   Clear
8:35 AM 50.0 °F - 21.2 °F 32% 30.48 in 10.0 mi ESE 3.5 mph - N/A   Clear
8:55 AM 55.4 °F - 21.2 °F 26% 30.48 in 10.0 mi ESE 8.1 mph - N/A   Clear
9:15 AM 57.2 °F - 21.2 °F 25% 30.48 in 10.0 mi SE 8.1 mph - N/A   Clear
9:35 AM 59.0 °F - 19.4 °F 22% 30.48 in 10.0 mi Calm Calm - N/A   Clear
9:55 AM 60.8 °F - 21.2 °F 22% 30.48 in 10.0 mi NNE 4.6 mph - N/A   Clear
10:15 AM 62.6 °F - 21.2 °F 20% 30.48 in 10.0 mi North 4.6 mph - N/A   Clear
10:35 AM 62.6 °F - 19.4 °F 19% 30.48 in 10.0 mi North 3.5 mph - N/A   Clear
10:55 AM 64.4 °F - 19.4 °F 18% 30.47 in 10.0 mi NNE 5.8 mph - N/A   Clear
11:15 AM 66.2 °F - 19.4 °F 17% 30.47 in 10.0 mi North 4.6 mph - N/A   Clear
11:35 AM 66.2 °F - 17.6 °F 15% 30.46 in 10.0 mi NNE 3.5 mph - N/A   Clear
11:55 AM 66.2 °F - 19.4 °F 17% 30.45 in 10.0 mi NNW 4.6 mph - N/A   Clear
12:15 PM 68.0 °F - 19.4 °F 16% 30.44 in 10.0 mi NW 5.8 mph - N/A   Clear
12:35 PM 68.0 °F - 19.4 °F 16% 30.43 in 10.0 mi WNW 4.6 mph - N/A   Clear
12:55 PM 68.0 °F - 21.2 °F 17% 30.42 in 10.0 mi WNW 5.8 mph - N/A   Clear
1:15 PM 69.8 °F - 21.2 °F 16% 30.41 in 10.0 mi NW 8.1 mph - N/A   Clear
1:35 PM 69.8 °F - 21.2 °F 16% 30.41 in 10.0 mi WSW 4.6 mph - N/A   Clear
1:55 PM 69.8 °F - 21.2 °F 16% 30.40 in 10.0 mi West 6.9 mph - N/A   Clear
2:15 PM 71.6 °F - 19.4 °F 14% 30.40 in 10.0 mi NW 6.9 mph - N/A   Clear
2:55 PM 69.8 °F - 19.4 °F 15% 30.40 in 10.0 mi NNW 6.9 mph - N/A   Clear
3:15 PM 69.8 °F - 19.4 °F 15% 30.40 in 10.0 mi North 11.5 mph - N/A   Clear
3:35 PM 69.8 °F - 19.4 °F 15% 30.40 in 10.0 mi North 10.4 mph - N/A   Clear
3:55 PM 68.0 °F - 21.2 °F 17% 30.40 in 10.0 mi North 15.0 mph - N/A   Clear
4:15 PM 66.2 °F - 21.2 °F 18% 30.40 in 10.0 mi NNE 13.8 mph - N/A   Clear
4:35 PM 66.2 °F - 23.0 °F 19% 30.41 in 10.0 mi NE 10.4 mph - N/A   Clear
4:55 PM 64.4 °F - 23.0 °F 21% 30.41 in 10.0 mi NE 16.1 mph 19.6 mph N/A   Clear
5:15 PM 62.6 °F - 23.0 °F 22% 30.42 in 10.0 mi ENE 9.2 mph - N/A   Clear
5:55 PM 59.0 °F - 23.0 °F 25% 30.42 in 10.0 mi ENE 5.8 mph - N/A   Clear
6:15 PM 55.4 °F - 23.0 °F 29% 30.43 in 10.0 mi Calm Calm - N/A   Clear
6:35 PM 55.4 °F - 23.0 °F 29% 30.43 in 10.0 mi SSE 5.8 mph - N/A   Clear
6:55 PM 53.6 °F - 23.0 °F 30% 30.43 in 10.0 mi South 6.9 mph - N/A   Unknown
7:15 PM 50.0 °F - 21.2 °F 32% 30.42 in 10.0 mi SSE 8.1 mph - N/A   Clear
7:35 PM 50.0 °F - 23.0 °F 35% 30.43 in 10.0 mi SE 5.8 mph - N/A   Clear
7:55 PM 50.0 °F - 21.2 °F 32% 30.43 in 10.0 mi Calm Calm - N/A   Clear
8:15 PM 48.2 °F - 21.2 °F 34% 30.43 in 10.0 mi SSE 3.5 mph - N/A   Clear
8:35 PM 44.6 °F 42.2 °F 19.4 °F 37% 30.44 in 10.0 mi SSE 4.6 mph - N/A   Clear
8:55 PM 41.0 °F 37.1 °F 21.2 °F 45% 30.44 in 10.0 mi SSE 5.8 mph - N/A   Clear
9:15 PM 41.0 °F 37.1 °F 21.2 °F 45% 30.45 in 10.0 mi SSE 5.8 mph - N/A   Clear
9:35 PM 39.2 °F 35.0 °F 19.4 °F 45% 30.45 in 10.0 mi SSE 5.8 mph - N/A   Clear
9:55 PM 39.2 °F 34.2 °F 19.4 °F 45% 30.45 in 10.0 mi SSE 6.9 mph - N/A   Clear
10:15 PM 37.4 °F 30.3 °F 19.4 °F 48% 30.45 in 10.0 mi SSE 10.4 mph - N/A   Clear
10:35 PM 37.4 °F 32.1 °F 21.2 °F 52% 30.45 in 10.0 mi SSE 6.9 mph - N/A   Clear
10:55 PM 37.4 °F 32.1 °F 19.4 °F 48% 30.44 in 10.0 mi SSE 6.9 mph - N/A   Clear
11:15 PM 37.4 °F 31.4 °F 19.4 °F 48% 30.44 in 10.0 mi SSE 8.1 mph - N/A   Clear
11:35 PM 35.6 °F 30.7 °F 19.4 °F 52% 30.44 in 10.0 mi South 5.8 mph - N/A   Clear
11:55 PM 35.6 °F 29.2 °F 19.4 °F 52% 30.44 in 10.0 mi SSE 8.1 mph - N/A   Clear